Retour au catalogue

CZ-6A DEB

ActifPO
NORAD 61294·DEBRIS·🇨🇳 China

Lancé Aug 6, 2024 depuis Taiyuan Satellite Launch Center

Loading…

Prochains Passages (prochaines 24 heures)

TLE

FraisSource: Space-Track

Époque: Sep 14, 2026, 10:50 UTC

1 61294U 24140TF  26257.45160681  .00001658  00000-0  45128-3 0  9999
2 61294  88.9017 252.1419 0055238   0.0774   0.0429 14.46167729107800

Suivez CZ-6A DEB en temps réel avec AllMySat

Download on the App Store